Voltar ao catálogo

CZ-6A DEB

AtivoSSO
NORAD 56614·DEBRIS·🇨🇳 China

Lançado Nov 11, 2022 de Taiyuan Satellite Launch Center

Loading…

Próximas Passagens (próximas 24 horas)

TLE

AtualizadoSource: Space-Track

Época: Sep 13, 2026, 15:36 UTC

1 56614U 22151AEN 26256.65064743  .00000297  00000-0  23284-3 0  9999
2 56614  98.8690 217.6659 0115807 171.3613 188.9580 13.96182453172511

Acompanhe CZ-6A DEB em tempo real com AllMySat

Download on the App Store